Time,TemperatureF,DewpointF,PressureIn,WindDirection,WindDirectionDegrees,WindSpeedMPH,WindSpeedGustMPH,Humidity,HourlyPrecipIn,Conditions,Clouds,dailyrainin,SoftwareType,DateUTC
2013-04-11 00:04:00,48.4,45.9,29.80,SSW,193,0.0,0.0,91,0.00,RA,,0.00,WeatherDisplay:10.37,2013-04-11 04:04:00,
2013-04-11 00:09:00,48.4,45.9,29.77,South,187,0.0,1.0,91,0.00,CLR,,0.00,WeatherDisplay:10.37,2013-04-11 04:09:00,
2013-04-11 00:14:00,48.4,45.9,29.77,SSE,161,0.0,1.0,91,0.00,CLR,,0.00,WeatherDisplay:10.37,2013-04-11 04:14:00,
2013-04-11 00:19:00,48.4,45.9,29.77,SE,134,0.0,1.0,91,0.00,CLR,,0.00,WeatherDisplay:10.37,2013-04-11 04:19:00,
2013-04-11 00:24:00,48.2,45.7,29.77,SE,141,1.0,1.0,91,0.00,CLR,,0.00,WeatherDisplay:10.37,2013-04-11 04:24:00,
2013-04-11 00:29:00,48.2,45.7,29.77,SSW,200,0.0,3.0,91,0.00,CLR,,0.00,WeatherDisplay:10.37,2013-04-11 04:29:00,
2013-04-11 00:34:00,48.2,45.7,29.77,SSW,200,0.0,0.0,91,0.00,CLR,,0.00,WeatherDisplay:10.37,2013-04-11 04:34:00,
2013-04-11 00:39:00,48.2,45.7,29.77,South,171,1.0,1.0,91,0.00,CLR,,0.00,WeatherDisplay:10.37,2013-04-11 04:39:00,
2013-04-11 00:44:00,48.2,45.7,29.77,SSE,161,0.0,1.0,91,0.00,CLR,,0.00,WeatherDisplay:10.37,2013-04-11 04:44:00,
2013-04-11 00:49:00,48.2,46.0,29.77,South,185,0.0,0.0,92,0.00,CLR,,0.00,WeatherDisplay:10.37,2013-04-11 04:49:00,
2013-04-11 00:54:00,48.0,45.8,29.77,SSE,158,0.0,1.0,92,0.00,CLR,,0.00,WeatherDisplay:10.37,2013-04-11 04:54:00,
2013-04-11 00:59:00,48.0,45.8,29.77,East,98,0.0,1.0,92,0.00,CLR,,0.00,WeatherDisplay:10.37,2013-04-11 04:59:00,
2013-04-11 01:04:00,48.0,45.8,29.77,East,90,0.0,1.0,92,0.00,CLR,,0.00,WeatherDisplay:10.37,2013-04-11 05:04:00,
2013-04-11 01:09:00,48.0,45.8,29.77,NE,55,0.0,1.0,92,0.00,CLR,,0.00,WeatherDisplay:10.37,2013-04-11 05:09:00,
2013-04-11 01:14:00,48.0,46.1,29.77,NE,46,0.0,0.0,93,0.00,CLR,,0.00,WeatherDisplay:10.37,2013-04-11 05:14:00,
2013-04-11 01:19:00,48.0,46.1,29.77,East,99,0.0,0.0,93,0.00,CLR,,0.00,WeatherDisplay:10.37,2013-04-11 05:19:00,
2013-04-11 01:24:00,48.0,46.1,29.77,SE,140,0.0,1.0,93,0.00,CLR,,0.00,WeatherDisplay:10.37,2013-04-11 05:24:00,
2013-04-11 01:29:00,48.0,46.1,29.77,SSE,153,0.0,0.0,93,0.00,CLR,,0.00,WeatherDisplay:10.37,2013-04-11 05:29:00,
2013-04-11 01:34:00,48.0,46.1,29.77,SSE,149,0.0,0.0,93,0.00,CLR,,0.00,WeatherDisplay:10.37,2013-04-11 05:34:00,
2013-04-11 01:39:00,48.0,46.1,29.74,SE,126,0.0,1.0,93,0.00,CLR,,0.00,WeatherDisplay:10.37,2013-04-11 05:39:00,
2013-04-11 01:44:00,48.0,46.1,29.74,SE,129,0.0,0.0,93,0.00,CLR,,0.00,WeatherDisplay:10.37,2013-04-11 05:44:00,
2013-04-11 01:49:00,48.0,46.1,29.74,SSE,166,0.0,1.0,93,0.00,CLR,,0.00,WeatherDisplay:10.37,2013-04-11 05:49:00,
2013-04-11 01:54:00,48.0,46.1,29.74,SSW,196,1.0,1.0,93,0.00,CLR,,0.00,WeatherDisplay:10.37,2013-04-11 05:54:00,
2013-04-11 01:59:00,47.8,45.9,29.74,WSW,243,0.0,1.0,93,0.00,CLR,,0.00,WeatherDisplay:10.37,2013-04-11 05:59:00,
2013-04-11 02:04:00,48.0,46.1,29.74,SW,218,0.0,0.0,93,0.00,CLR,,0.00,WeatherDisplay:10.37,2013-04-11 06:04:00,
2013-04-11 02:09:00,48.0,46.1,29.77,South,187,0.0,0.0,93,0.00,CLR,,0.00,WeatherDisplay:10.37,2013-04-11 06:09:00,
2013-04-11 02:19:00,48.0,46.1,29.77,South,180,0.0,0.0,93,0.00,CLR,,0.00,WeatherDisplay:10.37,2013-04-11 06:19:00,
2013-04-11 02:29:00,48.0,46.1,29.77,SSE,161,0.0,0.0,93,0.00,CLR,,0.00,WeatherDisplay:10.37,2013-04-11 06:29:00,
2013-04-11 02:34:00,48.0,46.4,29.77,SSE,158,0.0,0.0,94,0.00,CLR,,0.00,WeatherDisplay:10.37,2013-04-11 06:34:00,
2013-04-11 02:39:00,48.0,46.4,29.77,SE,131,0.0,1.0,94,0.00,CLR,,0.00,WeatherDisplay:10.37,2013-04-11 06:39:00,
2013-04-11 02:44:00,48.0,46.4,29.77,SSE,164,0.0,1.0,94,0.00,CLR,,0.00,WeatherDisplay:10.37,2013-04-11 06:44:00,
2013-04-11 02:49:00,48.0,46.4,29.77,SSW,202,0.0,0.0,94,0.00,CLR,,0.00,WeatherDisplay:10.37,2013-04-11 06:49:00,
2013-04-11 02:54:00,48.0,46.4,29.74,SSW,192,0.0,0.0,94,0.00,CLR,,0.00,WeatherDisplay:10.37,2013-04-11 06:54:00,
2013-04-11 02:59:00,48.0,46.4,29.74,South,181,0.0,0.0,94,0.00,CLR,,0.00,WeatherDisplay:10.37,2013-04-11 06:59:00,
2013-04-11 03:04:00,48.0,46.4,29.74,South,180,0.0,0.0,94,0.00,CLR,,0.00,WeatherDisplay:10.37,2013-04-11 07:04:00,
2013-04-11 03:09:00,48.0,46.4,29.74,SSE,158,0.0,1.0,94,0.00,CLR,,0.00,WeatherDisplay:10.37,2013-04-11 07:09:00,
2013-04-11 03:19:00,48.2,46.6,29.74,SE,135,0.0,0.0,94,0.00,CLR,,0.00,WeatherDisplay:10.37,2013-04-11 07:19:00,
2013-04-11 03:24:00,48.2,46.6,29.74,South,190,0.0,0.0,94,0.00,CLR,,0.00,WeatherDisplay:10.37,2013-04-11 07:24:00,
2013-04-11 03:29:00,48.2,46.6,29.74,SW,225,0.0,0.0,94,0.00,CLR,,0.00,WeatherDisplay:10.37,2013-04-11 07:29:00,
2013-04-11 03:34:00,48.2,46.6,29.74,SW,225,0.0,0.0,94,0.00,CLR,,0.00,WeatherDisplay:10.37,2013-04-11 07:34:00,
2013-04-11 03:39:00,48.2,46.6,29.74,SW,225,0.0,0.0,94,0.00,CLR,,0.00,WeatherDisplay:10.37,2013-04-11 07:39:00,
2013-04-11 03:49:00,48.2,46.6,29.74,ESE,119,0.0,1.0,94,0.00,CLR,,0.00,WeatherDisplay:10.37,2013-04-11 07:49:00,
2013-04-11 03:54:00,48.4,46.7,29.74,ESE,114,0.0,0.0,94,0.00,CLR,,0.00,WeatherDisplay:10.37,2013-04-11 07:54:00,
2013-04-11 03:59:00,48.4,46.7,29.74,SE,139,0.0,0.0,94,0.00,CLR,,0.00,WeatherDisplay:10.37,2013-04-11 07:59:00,
2013-04-11 04:04:00,48.4,46.7,29.74,South,171,0.0,0.0,94,0.00,CLR,,0.00,WeatherDisplay:10.37,2013-04-11 08:04:00,
2013-04-11 04:09:00,48.4,46.7,29.74,South,180,0.0,0.0,94,0.00,CLR,,0.00,WeatherDisplay:10.37,2013-04-11 08:09:00,
2013-04-11 04:14:00,48.4,46.7,29.74,South,180,0.0,0.0,94,0.00,CLR,,0.00,WeatherDisplay:10.37,2013-04-11 08:14:00,
2013-04-11 04:19:00,48.4,46.7,29.74,SW,214,0.0,1.0,94,0.00,CLR,,0.00,WeatherDisplay:10.37,2013-04-11 08:19:00,
2013-04-11 04:24:00,48.6,47.2,29.77,WSW,255,0.0,1.0,95,0.00,CLR,,0.00,WeatherDisplay:10.37,2013-04-11 08:24:00,
2013-04-11 04:29:00,48.6,47.2,29.77,SW,219,0.0,1.0,95,0.00,CLR,,0.00,WeatherDisplay:10.37,2013-04-11 08:29:00,
2013-04-11 04:34:00,48.6,47.2,29.77,SSE,151,0.0,2.0,95,0.00,CLR,,0.00,WeatherDisplay:10.37,2013-04-11 08:34:00,
2013-04-11 04:39:00,48.6,47.2,29.74,SE,136,0.0,0.0,95,0.00,CLR,,0.00,WeatherDisplay:10.37,2013-04-11 08:39:00,
2013-04-11 04:44:00,48.7,47.4,29.74,South,183,0.0,1.0,95,0.00,CLR,,0.00,WeatherDisplay:10.37,2013-04-11 08:44:00,
2013-04-11 04:49:00,48.7,47.4,29.74,SSW,213,1.0,1.0,95,0.00,CLR,,0.00,WeatherDisplay:10.37,2013-04-11 08:49:00,
2013-04-11 04:54:00,48.7,47.4,29.74,SSW,212,0.0,1.0,95,0.00,CLR,,0.00,WeatherDisplay:10.37,2013-04-11 08:54:00,
2013-04-11 04:59:00,48.7,47.4,29.74,SW,226,0.0,1.0,95,0.00,CLR,,0.00,WeatherDisplay:10.37,2013-04-11 08:59:00,
2013-04-11 05:04:00,48.9,47.6,29.74,SSE,163,0.0,0.0,95,0.00,CLR,,0.00,WeatherDisplay:10.37,2013-04-11 09:04:00,
2013-04-11 05:09:00,48.9,47.6,29.74,SE,130,1.0,1.0,95,0.00,CLR,,0.00,WeatherDisplay:10.37,2013-04-11 09:09:00,
2013-04-11 05:14:00,48.9,47.6,29.74,ENE,66,0.0,2.0,95,0.00,CLR,,0.00,WeatherDisplay:10.37,2013-04-11 09:14:00,
2013-04-11 05:19:00,49.1,47.7,29.74,NNW,341,2.0,2.0,95,0.00,CLR,,0.00,WeatherDisplay:10.37,2013-04-11 09:19:00,
2013-04-11 05:24:00,49.2,47.8,29.77,NW,314,0.0,3.0,95,0.00,CLR,,0.00,WeatherDisplay:10.37,2013-04-11 09:24:00,
2013-04-11 05:29:00,49.3,47.9,29.77,NW,309,0.0,1.0,95,0.00,CLR,,0.00,WeatherDisplay:10.37,2013-04-11 09:29:00,
2013-04-11 05:34:00,49.3,47.9,29.77,WNW,289,1.0,3.0,95,0.00,CLR,,0.00,WeatherDisplay:10.37,2013-04-11 09:34:00,
2013-04-11 05:44:00,49.5,48.1,29.80,NW,316,2.0,3.0,95,0.00,CLR,,0.00,WeatherDisplay:10.37,2013-04-11 09:44:00,
2013-04-11 05:49:00,49.5,48.4,29.80,WNW,293,1.0,3.0,96,0.00,CLR,,0.00,WeatherDisplay:10.37,2013-04-11 09:49:00,
2013-04-11 05:54:00,49.5,48.4,29.80,WNW,284,1.0,1.0,96,0.00,CLR,,0.00,WeatherDisplay:10.37,2013-04-11 09:54:00,
2013-04-11 05:59:00,49.6,48.5,29.80,NW,309,1.0,1.0,96,0.00,CLR,,0.00,WeatherDisplay:10.37,2013-04-11 09:59:00,
2013-04-11 06:09:00,49.6,48.5,29.80,NE,40,2.0,3.0,96,0.00,CLR,,0.00,WeatherDisplay:10.37,2013-04-11 10:09:00,
2013-04-11 06:14:00,49.6,48.3,29.80,ENE,59,0.0,3.0,95,0.00,CLR,,0.00,WeatherDisplay:10.37,2013-04-11 10:14:00,
2013-04-11 06:19:00,49.6,48.3,29.80,SSE,153,1.0,2.0,95,0.00,CLR,,0.00,WeatherDisplay:10.37,2013-04-11 10:19:00,
2013-04-11 06:24:00,49.6,48.3,29.80,East,93,0.0,2.0,95,0.00,CLR,,0.00,WeatherDisplay:10.37,2013-04-11 10:24:00,
2013-04-11 06:29:00,49.6,48.3,29.80,NE,55,1.0,2.0,95,0.00,CLR,,0.00,WeatherDisplay:10.37,2013-04-11 10:29:00,
2013-04-11 06:34:00,49.6,48.3,29.80,NE,50,2.0,3.0,95,0.00,CLR,,0.00,WeatherDisplay:10.37,2013-04-11 10:34:00,
2013-04-11 06:39:00,49.5,48.1,29.80,ENE,61,0.0,4.0,95,0.00,CLR,,0.00,WeatherDisplay:10.37,2013-04-11 10:39:00,
2013-04-11 06:44:00,49.6,48.3,29.80,East,85,2.0,2.0,95,0.00,CLR,,0.00,WeatherDisplay:10.37,2013-04-11 10:44:00,
2013-04-11 06:49:00,49.6,48.3,29.80,North,3,2.0,4.0,95,0.00,CLR,,0.00,WeatherDisplay:10.37,2013-04-11 10:49:00,
2013-04-11 06:54:00,49.6,48.3,29.83,North,359,1.0,2.0,95,0.00,CLR,,0.00,WeatherDisplay:10.37,2013-04-11 10:54:00,
2013-04-11 06:59:00,49.6,48.3,29.83,ENE,67,1.0,2.0,95,0.00,CLR,,0.00,WeatherDisplay:10.37,2013-04-11 10:59:00,
2013-04-11 07:04:00,49.6,48.3,29.83,ENE,57,1.0,3.0,95,0.00,CLR,,0.00,WeatherDisplay:10.37,2013-04-11 11:04:00,
2013-04-11 07:09:00,49.6,48.3,29.83,ESE,116,0.0,2.0,95,0.00,CLR,,0.00,WeatherDisplay:10.37,2013-04-11 11:09:00,
2013-04-11 07:14:00,49.8,48.4,29.83,South,191,1.0,1.0,95,0.00,CLR,,0.00,WeatherDisplay:10.37,2013-04-11 11:14:00,
2013-04-11 07:19:00,49.8,48.4,29.83,WNW,302,2.0,4.0,95,0.00,CLR,,0.00,WeatherDisplay:10.37,2013-04-11 11:19:00,
2013-04-11 07:24:00,49.9,48.5,29.85,NW,320,2.0,2.0,95,0.00,CLR,,0.00,WeatherDisplay:10.37,2013-04-11 11:24:00,
2013-04-11 07:29:00,50.0,48.6,29.85,NE,51,1.0,3.0,95,0.00,CLR,,0.00,WeatherDisplay:10.37,2013-04-11 11:29:00,
2013-04-11 07:34:00,50.0,48.6,29.85,East,85,1.0,3.0,95,0.00,CLR,,0.00,WeatherDisplay:10.37,2013-04-11 11:34:00,
2013-04-11 07:39:00,50.0,48.6,29.85,ESE,102,1.0,3.0,95,0.00,CLR,,0.00,WeatherDisplay:10.37,2013-04-11 11:39:00,
2013-04-11 07:44:00,50.2,48.8,29.85,East,82,1.0,4.0,95,0.00,CLR,,0.00,WeatherDisplay:10.37,2013-04-11 11:44:00,
2013-04-11 07:49:00,50.2,48.8,29.85,NE,45,2.0,5.0,95,0.00,CLR,,0.00,WeatherDisplay:10.37,2013-04-11 11:49:00,
2013-04-11 07:54:00,50.2,48.8,29.85,NE,47,2.0,2.0,95,0.00,CLR,,0.00,WeatherDisplay:10.37,2013-04-11 11:54:00,
2013-04-11 07:59:00,50.2,48.8,29.85,NE,45,1.0,3.0,95,0.00,CLR,,0.00,WeatherDisplay:10.37,2013-04-11 11:59:00,
2013-04-11 08:04:00,50.4,49.0,29.85,North,356,1.0,2.0,95,0.00,CLR,,0.00,WeatherDisplay:10.37,2013-04-11 12:04:00,
2013-04-11 08:09:00,50.5,49.2,29.85,North,10,1.0,2.0,95,0.00,CLR,,0.00,WeatherDisplay:10.37,2013-04-11 12:09:00,
2013-04-11 08:14:00,50.5,48.9,29.85,East,100,1.0,2.0,94,0.00,CLR,,0.00,WeatherDisplay:10.37,2013-04-11 12:14:00,
2013-04-11 08:19:00,50.7,49.1,29.85,NNE,24,1.0,3.0,94,0.00,CLR,,0.00,WeatherDisplay:10.37,2013-04-11 12:19:00,
2013-04-11 08:24:00,51.1,49.4,29.85,NNE,21,0.0,1.0,94,0.00,CLR,,0.00,WeatherDisplay:10.37,2013-04-11 12:24:00,
2013-04-11 08:29:00,51.4,49.8,29.85,ENE,65,2.0,3.0,94,0.00,CLR,,0.00,WeatherDisplay:10.37,2013-04-11 12:29:00,
2013-04-11 08:34:00,52.0,50.3,29.85,ENE,58,2.0,2.0,94,0.00,CLR,,0.00,WeatherDisplay:10.37,2013-04-11 12:34:00,
2013-04-11 08:39:00,52.7,50.7,29.85,NNE,12,2.0,2.0,93,0.00,CLR,,0.00,WeatherDisplay:10.37,2013-04-11 12:39:00,
2013-04-11 08:44:00,52.9,50.9,29.85,NE,43,2.0,5.0,93,0.00,CLR,,0.00,WeatherDisplay:10.37,2013-04-11 12:44:00,
2013-04-11 08:49:00,52.5,50.3,29.85,ENE,66,2.0,5.0,92,0.00,CLR,,0.00,WeatherDisplay:10.37,2013-04-11 12:49:00,
2013-04-11 08:54:00,52.4,50.1,29.88,NE,46,3.0,5.0,92,0.00,CLR,,0.00,WeatherDisplay:10.37,2013-04-11 12:54:00,
2013-04-11 08:59:00,52.5,50.3,29.88,NE,49,2.0,5.0,92,0.00,CLR,,0.00,WeatherDisplay:10.37,2013-04-11 12:59:00,
2013-04-11 09:04:00,52.7,50.4,29.88,ENE,66,0.0,3.0,92,0.00,CLR,,0.00,WeatherDisplay:10.37,2013-04-11 13:04:00,
2013-04-11 09:09:00,52.9,50.6,29.88,East,97,1.0,2.0,92,0.00,CLR,,0.00,WeatherDisplay:10.37,2013-04-11 13:09:00,
2013-04-11 09:14:00,52.7,50.4,29.88,ENE,60,2.0,4.0,92,0.00,CLR,,0.00,WeatherDisplay:10.37,2013-04-11 13:14:00,
2013-04-11 09:19:00,52.5,50.0,29.88,East,98,2.0,3.0,91,0.00,CLR,,0.00,WeatherDisplay:10.37,2013-04-11 13:19:00,
2013-04-11 09:24:00,52.7,50.1,29.88,East,79,2.0,3.0,91,0.00,CLR,,0.00,WeatherDisplay:10.37,2013-04-11 13:24:00,
2013-04-11 09:29:00,52.9,50.3,29.88,NE,49,1.0,3.0,91,0.00,CLR,,0.00,WeatherDisplay:10.37,2013-04-11 13:29:00,
2013-04-11 09:34:00,52.9,50.3,29.88,NE,38,1.0,4.0,91,0.00,CLR,,0.00,WeatherDisplay:10.37,2013-04-11 13:34:00,
2013-04-11 09:39:00,53.2,50.7,29.88,ENE,64,0.0,3.0,91,0.00,CLR,,0.00,WeatherDisplay:10.37,2013-04-11 13:39:00,
2013-04-11 09:44:00,53.7,50.9,29.88,ENE,62,1.0,3.0,90,0.00,CLR,,0.00,WeatherDisplay:10.37,2013-04-11 13:44:00,
2013-04-11 09:49:00,54.1,51.3,29.88,NNE,31,2.0,3.0,90,0.00,CLR,,0.00,WeatherDisplay:10.37,2013-04-11 13:49:00,
2013-04-11 09:54:00,54.3,51.1,29.88,NE,36,2.0,3.0,89,0.00,CLR,,0.00,WeatherDisplay:10.37,2013-04-11 13:54:00,
2013-04-11 10:04:00,54.5,51.3,29.88,North,357,3.0,5.0,89,0.00,CLR,,0.00,WeatherDisplay:10.37,2013-04-11 14:04:00,
2013-04-11 10:09:00,54.7,51.5,29.88,North,354,3.0,4.0,89,0.00,CLR,,0.00,WeatherDisplay:10.37,2013-04-11 14:09:00,
2013-04-11 10:14:00,55.2,52.0,29.88,North,5,0.0,4.0,89,0.00,CLR,,0.00,WeatherDisplay:10.37,2013-04-11 14:14:00,
2013-04-11 10:19:00,55.7,52.2,29.88,NE,42,2.0,2.0,88,0.00,CLR,,0.00,WeatherDisplay:10.37,2013-04-11 14:19:00,
2013-04-11 10:24:00,55.9,52.4,29.88,North,10,3.0,5.0,88,0.00,CLR,,0.00,WeatherDisplay:10.37,2013-04-11 14:24:00,
2013-04-11 10:29:00,55.9,51.8,29.88,NNE,26,2.0,5.0,86,0.00,CLR,,0.00,WeatherDisplay:10.37,2013-04-11 14:29:00,
2013-04-11 10:34:00,56.1,52.0,29.88,ENE,60,3.0,6.0,86,0.00,CLR,,0.00,WeatherDisplay:10.37,2013-04-11 14:34:00,
2013-04-11 10:39:00,56.7,52.2,29.88,ENE,76,3.0,5.0,85,0.00,CLR,,0.00,WeatherDisplay:10.37,2013-04-11 14:39:00,
2013-04-11 10:44:00,57.1,52.3,29.88,ENE,60,1.0,3.0,84,0.00,CLR,,0.00,WeatherDisplay:10.37,2013-04-11 14:44:00,
2013-04-11 10:49:00,57.4,52.6,29.88,ENE,72,3.0,5.0,84,0.00,CLR,,0.00,WeatherDisplay:10.37,2013-04-11 14:49:00,
2013-04-11 10:54:00,57.2,52.1,29.88,East,98,3.0,5.0,83,0.00,CLR,,0.00,WeatherDisplay:10.37,2013-04-11 14:54:00,
2013-04-11 10:59:00,57.4,52.3,29.88,NE,55,3.0,5.0,83,0.00,CLR,,0.00,WeatherDisplay:10.37,2013-04-11 14:59:00,
2013-04-11 11:04:00,57.9,52.8,29.88,NW,322,0.0,2.0,83,0.00,CLR,,0.00,WeatherDisplay:10.37,2013-04-11 15:04:00,
2013-04-11 11:09:00,58.5,53.3,29.88,SSE,150,2.0,3.0,83,0.00,CLR,,0.00,WeatherDisplay:10.37,2013-04-11 15:09:00,
2013-04-11 11:14:00,58.2,52.7,29.88,NE,41,2.0,4.0,82,0.00,CLR,,0.00,WeatherDisplay:10.37,2013-04-11 15:14:00,
2013-04-11 11:19:00,58.1,52.6,29.88,ENE,57,3.0,4.0,82,0.00,CLR,,0.00,WeatherDisplay:10.37,2013-04-11 15:19:00,
2013-04-11 11:24:00,58.3,53.1,29.88,ENE,60,3.0,6.0,83,0.00,CLR,,0.00,WeatherDisplay:10.37,2013-04-11 15:24:00,
2013-04-11 11:29:00,58.5,52.6,29.88,North,6,2.0,4.0,81,0.00,CLR,,0.00,WeatherDisplay:10.37,2013-04-11 15:29:00,
2013-04-11 11:34:00,59.2,53.0,29.88,NW,321,2.0,3.0,80,0.00,CLR,,0.00,WeatherDisplay:10.37,2013-04-11 15:34:00,
2013-04-11 11:39:00,59.2,52.7,29.88,NW,315,3.0,5.0,79,0.00,CLR,,0.00,WeatherDisplay:10.37,2013-04-11 15:39:00,
2013-04-11 11:44:00,59.0,52.5,29.88,NNE,23,3.0,4.0,79,0.00,CLR,,0.00,WeatherDisplay:10.37,2013-04-11 15:44:00,
2013-04-11 11:49:00,59.4,52.9,29.88,ENE,70,2.0,5.0,79,0.00,CLR,,0.00,WeatherDisplay:10.37,2013-04-11 15:49:00,
2013-04-11 11:54:00,60.1,53.5,29.88,ESE,108,1.0,5.0,79,0.00,CLR,,0.00,WeatherDisplay:10.37,2013-04-11 15:54:00,
2013-04-11 11:59:00,60.4,53.5,29.88,ESE,108,5.0,5.0,78,0.00,CLR,,0.00,WeatherDisplay:10.37,2013-04-11 15:59:00,
2013-04-11 12:04:00,60.8,53.5,29.88,East,100,1.0,5.0,77,0.00,CLR,,0.00,WeatherDisplay:10.37,2013-04-11 16:04:00,
2013-04-11 12:09:00,60.8,54.3,29.88,NE,55,2.0,4.0,79,0.00,CLR,,0.00,WeatherDisplay:10.37,2013-04-11 16:09:00,
2013-04-11 12:14:00,60.7,53.5,29.88,NE,40,1.0,3.0,77,0.00,CLR,,0.00,WeatherDisplay:10.37,2013-04-11 16:14:00,
2013-04-11 12:19:00,61.0,53.1,29.88,East,89,2.0,4.0,75,0.00,CLR,,0.00,WeatherDisplay:10.37,2013-04-11 16:19:00,
2013-04-11 12:24:00,61.5,53.9,29.88,NE,35,2.0,3.0,76,0.00,CLR,,0.00,WeatherDisplay:10.37,2013-04-11 16:24:00,
2013-04-11 12:29:00,61.7,54.1,29.88,NE,42,3.0,5.0,76,0.00,CLR,,0.00,WeatherDisplay:10.37,2013-04-11 16:29:00,
2013-04-11 12:34:00,61.5,53.2,29.88,ENE,75,3.0,5.0,74,0.00,CLR,,0.00,WeatherDisplay:10.37,2013-04-11 16:34:00,
2013-04-11 12:39:00,61.7,53.7,29.88,ENE,64,3.0,5.0,75,0.00,CLR,,0.00,WeatherDisplay:10.37,2013-04-11 16:39:00,
2013-04-11 12:44:00,61.9,53.9,29.88,ENE,59,2.0,6.0,75,0.00,CLR,,0.00,WeatherDisplay:10.37,2013-04-11 16:44:00,
2013-04-11 12:49:00,61.9,53.9,29.88,NNE,30,2.0,3.0,75,0.00,CLR,,0.00,WeatherDisplay:10.37,2013-04-11 16:49:00,
2013-04-11 12:59:00,62.1,53.3,29.88,NE,54,5.0,6.0,73,0.00,CLR,,0.00,WeatherDisplay:10.37,2013-04-11 16:59:00,
2013-04-11 13:04:00,62.2,53.5,29.88,ENE,62,2.0,3.0,73,0.00,CLR,,0.00,WeatherDisplay:10.37,2013-04-11 17:04:00,
2013-04-11 13:09:00,62.8,53.6,29.88,North,358,2.0,3.0,72,0.00,CLR,,0.00,WeatherDisplay:10.37,2013-04-11 17:09:00,
2013-04-11 13:14:00,62.6,53.4,29.88,North,1,2.0,3.0,72,0.00,CLR,,0.00,WeatherDisplay:10.37,2013-04-11 17:14:00,
2013-04-11 13:19:00,62.6,53.4,29.88,North,2,1.0,3.0,72,0.00,CLR,,0.00,WeatherDisplay:10.37,2013-04-11 17:19:00,
2013-04-11 13:24:00,62.8,53.2,29.88,ENE,66,2.0,4.0,71,0.00,CLR,,0.00,WeatherDisplay:10.37,2013-04-11 17:24:00,
2013-04-11 13:29:00,62.8,53.2,29.88,East,84,1.0,4.0,71,0.00,CLR,,0.00,WeatherDisplay:10.37,2013-04-11 17:29:00,
2013-04-11 13:39:00,62.5,53.3,29.88,ENE,69,2.0,3.0,72,0.00,CLR,,0.00,WeatherDisplay:10.37,2013-04-11 17:39:00,
2013-04-11 13:44:00,62.4,53.3,29.88,North,3,0.0,3.0,72,0.00,CLR,,0.00,WeatherDisplay:10.37,2013-04-11 17:44:00,
2013-04-11 13:49:00,62.4,53.2,29.88,NNW,344,2.0,3.0,72,0.00,CLR,,0.00,WeatherDisplay:10.37,2013-04-11 17:49:00,
2013-04-11 13:54:00,62.2,53.1,29.91,NW,325,1.0,3.0,72,0.00,CLR,,0.00,WeatherDisplay:10.37,2013-04-11 17:54:00,
2013-04-11 13:59:00,62.2,52.7,29.91,NW,316,1.0,4.0,71,0.00,CLR,,0.00,WeatherDisplay:10.37,2013-04-11 17:59:00,
2013-04-11 14:04:00,62.6,53.1,29.91,NW,315,2.0,3.0,71,0.00,CLR,,0.00,WeatherDisplay:10.37,2013-04-11 18:04:00,
2013-04-11 14:09:00,62.6,52.7,29.91,East,84,1.0,3.0,70,0.00,CLR,,0.00,WeatherDisplay:10.37,2013-04-11 18:09:00,
2013-04-11 14:14:00,62.6,52.7,29.91,South,180,2.0,3.0,70,0.00,CLR,,0.00,WeatherDisplay:10.37,2013-04-11 18:14:00,
2013-04-11 14:19:00,62.4,52.9,29.91,SSW,200,2.0,3.0,71,0.00,CLR,,0.00,WeatherDisplay:10.37,2013-04-11 18:19:00,
2013-04-11 14:24:00,61.7,52.6,29.91,SSE,153,0.0,3.0,72,0.00,CLR,,0.00,WeatherDisplay:10.37,2013-04-11 18:24:00,
2013-04-11 14:29:00,61.3,52.2,29.91,SSW,196,0.0,2.0,72,0.00,CLR,,0.00,WeatherDisplay:10.37,2013-04-11 18:29:00,
2013-04-11 14:34:00,61.0,51.9,29.91,WSW,248,5.0,6.0,72,0.00,CLR,,0.00,WeatherDisplay:10.37,2013-04-11 18:34:00,
2013-04-11 14:39:00,60.5,51.4,29.91,West,270,1.0,7.0,72,0.00,CLR,,0.00,WeatherDisplay:10.37,2013-04-11 18:39:00,
2013-04-11 14:44:00,60.4,51.4,29.91,West,260,2.0,2.0,72,0.00,CLR,,0.00,WeatherDisplay:10.37,2013-04-11 18:44:00,
2013-04-11 14:49:00,60.2,51.2,29.91,SW,231,0.0,5.0,72,0.00,CLR,,0.00,WeatherDisplay:10.37,2013-04-11 18:49:00,
2013-04-11 14:54:00,60.1,51.0,29.91,West,265,3.0,4.0,72,0.00,CLR,,0.00,WeatherDisplay:10.37,2013-04-11 18:54:00,
2013-04-11 14:59:00,59.9,50.8,29.91,SW,234,2.0,5.0,72,0.00,CLR,,0.00,WeatherDisplay:10.37,2013-04-11 18:59:00,
2013-04-11 15:04:00,59.7,50.7,29.91,SW,227,2.0,4.0,72,0.00,CLR,,0.00,WeatherDisplay:10.37,2013-04-11 19:04:00,
2013-04-11 15:14:00,59.4,50.0,29.88,SW,221,1.0,6.0,71,0.00,CLR,,0.00,WeatherDisplay:10.37,2013-04-11 19:14:00,
2013-04-11 15:19:00,59.4,50.0,29.88,West,261,3.0,5.0,71,0.00,CLR,,0.00,WeatherDisplay:10.37,2013-04-11 19:19:00,
2013-04-11 15:24:00,59.2,49.8,29.91,WSW,255,1.0,3.0,71,0.00,CLR,,0.00,WeatherDisplay:10.37,2013-04-11 19:24:00,
2013-04-11 15:29:00,59.0,49.6,29.91,SW,216,2.0,4.0,71,0.00,CLR,,0.00,WeatherDisplay:10.37,2013-04-11 19:29:00,
2013-04-11 15:34:00,59.0,49.6,29.91,SW,219,5.0,6.0,71,0.00,CLR,,0.00,WeatherDisplay:10.37,2013-04-11 19:34:00,
2013-04-11 15:39:00,59.0,49.2,29.91,SW,231,0.0,6.0,70,0.00,CLR,,0.00,WeatherDisplay:10.37,2013-04-11 19:39:00,
2013-04-11 15:49:00,58.6,48.9,29.91,South,187,2.0,2.0,70,0.00,CLR,,0.00,WeatherDisplay:10.37,2013-04-11 19:49:00,
2013-04-11 15:59:00,58.5,49.1,29.88,WSW,253,1.0,3.0,71,0.00,CLR,,0.00,WeatherDisplay:10.37,2013-04-11 19:59:00,
2013-04-11 16:04:00,58.5,48.7,29.88,WSW,254,3.0,3.0,70,0.00,CLR,,0.00,WeatherDisplay:10.37,2013-04-11 20:04:00,
2013-04-11 16:09:00,58.3,48.5,29.88,SW,218,2.0,3.0,70,0.00,CLR,,0.00,WeatherDisplay:10.37,2013-04-11 20:09:00,
2013-04-11 16:14:00,58.1,48.4,29.91,SSW,208,5.0,6.0,70,0.00,CLR,,0.00,WeatherDisplay:10.37,2013-04-11 20:14:00,
2013-04-11 16:19:00,57.9,48.2,29.91,SW,229,2.0,6.0,70,0.00,CLR,,0.00,WeatherDisplay:10.37,2013-04-11 20:19:00,
2013-04-11 16:24:00,57.7,48.0,29.91,WSW,246,2.0,4.0,70,0.00,CLR,,0.00,WeatherDisplay:10.37,2013-04-11 20:24:00,
2013-04-11 16:34:00,57.0,47.3,29.91,SW,220,3.0,5.0,70,0.00,CLR,,0.00,WeatherDisplay:10.37,2013-04-11 20:34:00,
2013-04-11 16:39:00,57.0,47.3,29.91,SW,235,1.0,2.0,70,0.00,CLR,,0.00,WeatherDisplay:10.37,2013-04-11 20:39:00,
2013-04-11 16:44:00,56.7,46.6,29.91,WSW,255,2.0,3.0,69,0.00,CLR,,0.00,WeatherDisplay:10.37,2013-04-11 20:44:00,
2013-04-11 16:49:00,56.5,46.4,29.91,SW,217,2.0,3.0,69,0.00,CLR,,0.00,WeatherDisplay:10.37,2013-04-11 20:49:00,
2013-04-11 16:54:00,56.3,46.3,29.91,South,180,1.0,6.0,69,0.00,CLR,,0.00,WeatherDisplay:10.37,2013-04-11 20:54:00,
2013-04-11 16:59:00,56.1,46.0,29.91,SSW,194,2.0,3.0,69,0.00,CLR,,0.00,WeatherDisplay:10.37,2013-04-11 20:59:00,
2013-04-11 17:04:00,55.8,45.7,29.91,SSE,164,2.0,3.0,69,0.00,CLR,,0.00,WeatherDisplay:10.37,2013-04-11 21:04:00,
2013-04-11 17:14:00,55.0,45.1,29.91,SW,231,2.0,3.0,69,0.00,CLR,,0.00,WeatherDisplay:10.37,2013-04-11 21:14:00,
2013-04-11 17:24:00,54.6,44.6,29.91,NE,54,3.0,3.0,69,0.00,CLR,,0.00,WeatherDisplay:10.37,2013-04-11 21:24:00,
2013-04-11 17:29:00,54.3,44.3,29.91,NNE,30,1.0,3.0,69,0.00,CLR,,0.00,WeatherDisplay:10.37,2013-04-11 21:29:00,
2013-04-11 17:34:00,54.0,44.0,29.91,South,185,0.0,1.0,69,0.00,CLR,,0.00,WeatherDisplay:10.37,2013-04-11 21:34:00,
2013-04-11 17:39:00,53.8,43.8,29.91,SSE,151,1.0,1.0,69,0.00,CLR,,0.00,WeatherDisplay:10.37,2013-04-11 21:39:00,
2013-04-11 17:44:00,53.6,43.7,29.91,South,172,1.0,1.0,69,0.00,CLR,,0.00,WeatherDisplay:10.37,2013-04-11 21:44:00,
2013-04-11 17:49:00,53.4,43.9,29.91,South,177,0.0,2.0,70,0.00,CLR,,0.00,WeatherDisplay:10.37,2013-04-11 21:49:00,
2013-04-11 17:54:00,53.2,43.7,29.91,SSE,164,1.0,2.0,70,0.00,CLR,,0.00,WeatherDisplay:10.37,2013-04-11 21:54:00,
2013-04-11 18:04:00,52.7,42.8,29.91,SE,133,0.0,2.0,69,0.00,CLR,,0.00,WeatherDisplay:10.37,2013-04-11 22:04:00,
2013-04-11 18:09:00,52.5,42.6,29.91,NNE,17,0.0,1.0,69,0.00,CLR,,0.00,WeatherDisplay:10.37,2013-04-11 22:09:00,
2013-04-11 18:14:00,52.5,42.6,29.91,SW,219,0.0,0.0,69,0.00,CLR,,0.00,WeatherDisplay:10.37,2013-04-11 22:14:00,
2013-04-11 18:19:00,52.4,42.9,29.91,South,182,0.0,1.0,70,0.00,CLR,,0.00,WeatherDisplay:10.37,2013-04-11 22:19:00,
2013-04-11 18:24:00,52.3,42.8,29.91,SSE,168,0.0,1.0,70,0.00,CLR,,0.00,WeatherDisplay:10.37,2013-04-11 22:24:00,
2013-04-11 18:29:00,52.1,42.6,29.91,South,175,0.0,2.0,70,0.00,CLR,,0.00,WeatherDisplay:10.37,2013-04-11 22:29:00,
2013-04-11 18:34:00,52.0,42.5,29.91,NW,315,0.0,1.0,70,0.00,CLR,,0.00,WeatherDisplay:10.37,2013-04-11 22:34:00,
2013-04-11 18:39:00,51.8,42.3,29.94,NW,316,0.0,0.0,70,0.00,CLR,,0.00,WeatherDisplay:10.37,2013-04-11 22:39:00,
2013-04-11 18:44:00,51.6,42.2,29.94,WSW,255,0.0,0.0,70,0.00,CLR,,0.00,WeatherDisplay:10.37,2013-04-11 22:44:00,
2013-04-11 18:49:00,51.6,42.5,29.94,South,189,0.0,1.0,71,0.00,CLR,,0.00,WeatherDisplay:10.37,2013-04-11 22:49:00,
2013-04-11 18:54:00,51.4,42.0,29.94,SSW,193,1.0,2.0,70,0.00,CLR,,0.00,WeatherDisplay:10.37,2013-04-11 22:54:00,
2013-04-11 18:59:00,51.4,42.3,29.94,SW,221,2.0,5.0,71,0.00,CLR,,0.00,WeatherDisplay:10.37,2013-04-11 22:59:00,
2013-04-11 19:04:00,51.3,42.2,29.94,SW,218,1.0,5.0,71,0.00,CLR,,0.00,WeatherDisplay:10.37,2013-04-11 23:04:00,
2013-04-11 19:09:00,51.1,42.0,29.94,WSW,245,3.0,6.0,71,0.00,CLR,,0.00,WeatherDisplay:10.37,2013-04-11 23:09:00,
2013-04-11 19:14:00,50.9,41.8,29.94,West,268,3.0,7.0,71,0.00,CLR,,0.00,WeatherDisplay:10.37,2013-04-11 23:14:00,
2013-04-11 19:24:00,50.5,41.4,29.94,WSW,244,0.0,3.0,71,0.00,CLR,,0.00,WeatherDisplay:10.37,2013-04-11 23:24:00,
2013-04-11 19:29:00,50.2,40.8,29.94,SSW,209,1.0,4.0,70,0.00,CLR,,0.00,WeatherDisplay:10.37,2013-04-11 23:29:00,
2013-04-11 19:39:00,49.6,40.3,29.94,WSW,248,1.0,3.0,70,0.00,CLR,,0.00,WeatherDisplay:10.37,2013-04-11 23:39:00,
2013-04-11 19:44:00,49.5,40.1,29.94,West,275,1.0,3.0,70,0.00,CLR,,0.00,WeatherDisplay:10.37,2013-04-11 23:44:00,
2013-04-11 19:49:00,49.3,39.9,29.94,South,171,0.0,1.0,70,0.00,CLR,,0.00,WeatherDisplay:10.37,2013-04-11 23:49:00,
2013-04-11 19:54:00,49.1,39.7,29.94,SSE,162,1.0,2.0,70,0.00,CLR,,0.00,WeatherDisplay:10.37,2013-04-11 23:54:00,
2013-04-11 19:59:00,48.9,39.2,29.94,SSE,161,0.0,2.0,69,0.00,CLR,,0.00,WeatherDisplay:10.37,2013-04-11 23:59:00,
2013-04-11 20:04:00,48.9,39.2,29.94,East,84,3.0,4.0,69,0.00,CLR,,0.00,WeatherDisplay:10.37,2013-04-12 00:04:00,
2013-04-11 20:09:00,48.7,39.0,29.97,South,169,0.0,3.0,69,0.00,CLR,,0.00,WeatherDisplay:10.37,2013-04-12 00:09:00,
2013-04-11 20:14:00,48.6,38.8,29.97,South,175,2.0,5.0,69,0.00,CLR,,0.00,WeatherDisplay:10.37,2013-04-12 00:14:00,
2013-04-11 20:19:00,48.2,38.5,29.97,ENE,66,2.0,3.0,69,0.00,CLR,,0.00,WeatherDisplay:10.37,2013-04-12 00:19:00,
2013-04-11 20:24:00,48.0,38.3,29.97,SE,146,2.0,3.0,69,0.00,CLR,,0.00,WeatherDisplay:10.37,2013-04-12 00:24:00,
2013-04-11 20:29:00,48.0,38.3,29.97,SSE,162,2.0,3.0,69,0.00,CLR,,0.00,WeatherDisplay:10.37,2013-04-12 00:29:00,
2013-04-11 20:34:00,47.8,38.2,29.97,SSE,166,1.0,3.0,69,0.00,CLR,,0.00,WeatherDisplay:10.37,2013-04-12 00:34:00,
2013-04-11 20:39:00,47.7,38.0,29.97,SE,143,0.0,5.0,69,0.00,CLR,,0.00,WeatherDisplay:10.37,2013-04-12 00:39:00,
2013-04-11 20:44:00,47.5,37.8,29.97,SSE,154,0.0,5.0,69,0.00,CLR,,0.00,WeatherDisplay:10.37,2013-04-12 00:44:00,
2013-04-11 20:49:00,47.5,37.8,29.97,SSE,165,1.0,2.0,69,0.00,CLR,,0.00,WeatherDisplay:10.37,2013-04-12 00:49:00,
2013-04-11 20:54:00,47.5,37.8,29.97,SE,128,1.0,1.0,69,0.00,CLR,,0.00,WeatherDisplay:10.37,2013-04-12 00:54:00,
2013-04-11 20:59:00,47.3,37.6,29.97,East,97,0.0,2.0,69,0.00,CLR,,0.00,WeatherDisplay:10.37,2013-04-12 00:59:00,
2013-04-11 21:04:00,47.3,37.6,29.97,SSE,160,1.0,2.0,69,0.00,CLR,,0.00,WeatherDisplay:10.37,2013-04-12 01:04:00,
2013-04-11 21:09:00,47.3,37.6,29.97,South,177,0.0,2.0,69,0.00,CLR,,0.00,WeatherDisplay:10.37,2013-04-12 01:09:00,
2013-04-11 21:14:00,47.3,37.6,29.97,South,184,1.0,1.0,69,0.00,CLR,,0.00,WeatherDisplay:10.37,2013-04-12 01:14:00,
2013-04-11 21:24:00,46.9,37.3,30.00,SE,124,1.0,2.0,69,0.00,CLR,,0.00,WeatherDisplay:10.37,2013-04-12 01:24:00,
2013-04-11 21:29:00,46.9,37.3,30.00,SE,124,0.0,1.0,69,0.00,CLR,,0.00,WeatherDisplay:10.37,2013-04-12 01:29:00,
2013-04-11 21:34:00,46.8,37.1,30.00,North,359,0.0,1.0,69,0.00,CLR,,0.00,WeatherDisplay:10.37,2013-04-12 01:34:00,
2013-04-11 21:39:00,46.8,37.1,30.00,North,360,0.0,1.0,69,0.00,CLR,,0.00,WeatherDisplay:10.37,2013-04-12 01:39:00,
2013-04-11 21:44:00,46.8,37.1,30.00,SE,132,0.0,2.0,69,0.00,CLR,,0.00,WeatherDisplay:10.37,2013-04-12 01:44:00,
2013-04-11 21:49:00,46.6,37.0,30.00,SE,126,1.0,2.0,69,0.00,CLR,,0.00,WeatherDisplay:10.37,2013-04-12 01:49:00,
2013-04-11 21:54:00,46.6,37.0,30.00,ESE,117,1.0,2.0,69,0.00,CLR,,0.00,WeatherDisplay:10.37,2013-04-12 01:54:00,
2013-04-11 22:04:00,46.6,37.0,30.00,East,90,1.0,2.0,69,0.00,CLR,,0.00,WeatherDisplay:10.37,2013-04-12 02:04:00,
2013-04-11 22:09:00,46.4,36.8,30.00,East,88,1.0,3.0,69,0.00,CLR,,0.00,WeatherDisplay:10.37,2013-04-12 02:09:00,
2013-04-11 22:14:00,46.4,36.8,30.00,ENE,78,1.0,3.0,69,0.00,CLR,,0.00,WeatherDisplay:10.37,2013-04-12 02:14:00,
2013-04-11 22:24:00,46.2,36.2,30.00,SE,137,1.0,2.0,68,0.00,CLR,,0.00,WeatherDisplay:10.37,2013-04-12 02:24:00,
2013-04-11 22:29:00,46.2,36.2,30.00,NW,318,0.0,1.0,68,0.00,CLR,,0.00,WeatherDisplay:10.37,2013-04-12 02:29:00,
2013-04-11 22:34:00,46.2,35.9,30.00,ENE,68,1.0,2.0,67,0.00,CLR,,0.00,WeatherDisplay:10.37,2013-04-12 02:34:00,
2013-04-11 22:39:00,46.2,35.9,30.00,East,88,1.0,2.0,67,0.00,CLR,,0.00,WeatherDisplay:10.37,2013-04-12 02:39:00,
2013-04-11 22:44:00,46.0,35.7,30.00,ESE,106,1.0,4.0,67,0.00,CLR,,0.00,WeatherDisplay:10.37,2013-04-12 02:44:00,
2013-04-11 22:49:00,46.0,35.3,30.00,ESE,113,0.0,2.0,66,0.00,CLR,,0.00,WeatherDisplay:10.37,2013-04-12 02:49:00,
2013-04-11 22:54:00,46.0,35.3,30.00,SE,125,1.0,2.0,66,0.00,CLR,,0.00,WeatherDisplay:10.37,2013-04-12 02:54:00,
2013-04-11 22:59:00,46.0,34.9,30.00,ESE,119,0.0,3.0,65,0.00,CLR,,0.00,WeatherDisplay:10.37,2013-04-12 02:59:00,
2013-04-11 23:04:00,46.0,34.9,30.00,SE,125,1.0,2.0,65,0.00,CLR,,0.00,WeatherDisplay:10.37,2013-04-12 03:04:00,
2013-04-11 23:09:00,45.9,34.8,30.00,East,101,2.0,2.0,65,0.00,CLR,,0.00,WeatherDisplay:10.37,2013-04-12 03:09:00,
2013-04-11 23:14:00,45.9,34.8,30.00,ESE,107,2.0,2.0,65,0.00,CLR,,0.00,WeatherDisplay:10.37,2013-04-12 03:14:00,
2013-04-11 23:19:00,45.9,34.4,30.00,South,171,1.0,2.0,64,0.00,CLR,,0.00,WeatherDisplay:10.37,2013-04-12 03:19:00,
2013-04-11 23:24:00,45.9,34.4,30.00,SE,125,1.0,3.0,64,0.00,CLR,,0.00,WeatherDisplay:10.37,2013-04-12 03:24:00,
2013-04-11 23:29:00,45.9,34.4,30.00,NE,51,1.0,2.0,64,0.00,CLR,,0.00,WeatherDisplay:10.37,2013-04-12 03:29:00,
2013-04-11 23:34:00,45.9,34.4,30.00,NE,47,1.0,1.0,64,0.00,CLR,,0.00,WeatherDisplay:10.37,2013-04-12 03:34:00,
2013-04-11 23:39:00,45.7,34.2,30.00,East,93,1.0,1.0,64,0.00,CLR,,0.00,WeatherDisplay:10.37,2013-04-12 03:39:00,
2013-04-11 23:44:00,45.7,33.8,30.00,East,98,0.0,2.0,63,0.00,CLR,,0.00,WeatherDisplay:10.37,2013-04-12 03:44:00,
2013-04-11 23:49:00,45.7,33.8,30.00,ENE,68,2.0,2.0,63,0.00,CLR,,0.00,WeatherDisplay:10.37,2013-04-12 03:49:00,
2013-04-11 23:54:00,45.7,33.8,30.00,ENE,65,1.0,1.0,63,0.00,CLR,,0.00,WeatherDisplay:10.37,2013-04-12 03:54:00,
2013-04-11 23:59:00,45.7,33.8,30.00,East,95,0.0,0.0,63,0.00,CLR,,0.00,WeatherDisplay:10.37,2013-04-12 03:59:00,